Accueil
METAR-TAF:

METAR-TAF

Aéroports :

Eastmain, Québec, Canada

latitude: 52-14N, longitude: 078-31W, altitude: 7 m

Observation

Le bulletin a été fait il y a 52 minutes, à 19:00 UTC
Vent 15 kt de nord-ouest
Température 3°C
Humidité 70%
Pression 1016 hPa
Visibilité: 24.1 km
Quelques nuages à une hauteur de 14000 ft

METAR: CZEM 221900Z 32015KT 15SM FEW140 03/M02 A3000 RMK AC1 SLP160

Heure: 15:52 (19:52 UTC)


TAF: absent

Observations et prévisions météorologiques de plus de 4000 aéroports (messages METAR et TAF).

Les stations disponibles sont représentées par des disques jaunes et rouges sur la carte.

Passer la souris dessus pour voir le nom de la station.

Cliquer dessus pour voir les observations et prévisions météorologiques.

Pour changer de carte: cliquez sur les boutons verts avec une croix noire pour zoomer, sur le bouton vert avec un tiret pour effectuer un zoom arrière, ou sur les flèches vertes pour les cartes adjacentes.


METAR-TAF: